Find STARLINK-37935

NORAD ID: 799500992 Int'l Des: 2026-135S Constellation: starlink operational

Current View

Loading 3D Globe...

About STARLINK-37935

STARLINK-37935 (NORAD 799500992) is a starlink constellation satellite launched Jun 7, 2026

About STARLINK-37935

Description loading...

Upcoming Passes

Passes for default location (London). Set your location on the main map for personalized predictions.

Altitude History

Loading altitude history...

Two-Line Element Set

1 99999C 2026135S 26166.85534721 .00494160 00000-0 771620-4 0 1667
2 99999 97.2799 193.6395 0010497 264.7387 332.6787 16.03683713 19
Epoch: Jun 15, 2026 • Age: 9 hours